User: anonymous   Login
Location: Charleston
(38.3500°N, 81.6330°W)
Time: 20:45:06
(UTC-05:00)
Language:

Cosmos 1812 Rocket - Orbit

View from above orbital plane
View from above orbital plane
View from above satellite
View from above satellite

Ground track
Ground track

The orbit data is extracted from the following two-line orbital elements,

1 17296U 87003B   15032.19559787  .00000469  00000-0  54831-4 0  8640
2 17296 082.5303 115.4947 0019326 193.9534 226.7328 14.82850734514624
Epoch (UTC): 01 February 2015 04:41:39
Eccentricity: 0.0019326
inclination: 82.5303°
perigee height: 607 km
apogee height: 634 km
right ascension of ascending node: 115.4947°
argument of perigee: 193.9534°
revolutions per day: 14.82850734
mean anomaly at epoch: 226.7328°
orbit number at epoch: 51462

The dashed part of the orbit path shows where the satellite is in the earth's shadow,  

DLR